Regional Weather Roundup
Issued by NWS

Home | Current Version | Previous Version | Text Only | Print | Product List | Glossary Off
Versions: 1 2 3 4 5 6 7 8 9 10 11 12 13 14 15 16 17 18 19 20 21 22 23 24 25 26 27 28 29 30 31 32 33 34 35 36 37 38 39 40 41 42 43 44 45 46 47 48 49 50

676
ASUS43 KBIS 250402
RWRND

NORTH DAKOTA REGIONAL WEATHER ROUNDUP
NATIONAL WEATHER SERVICE BISMARCK ND
1100 PM CDT FRI MAR 24 2017

NOTE: "FAIR" INDICATES FEW OR NO CLOUDS BELOW 12,000 FEET WITH NO
SIGNIFICANT WEATHER AND/OR OBSTRUCTIONS TO VISIBILITY.


NDZ001>003-009>011-017-250500-
NORTHWEST NORTH DAKOTA

CITY           SKY/WX    TMP DP  RH WIND       PRES   REMARKS
WILLISTON      FAIR      45  32  60 SE16G25   29.96S
MINOT          FAIR      30  27  88 E12       30.11F
MINOT AFB      CLEAR     29  27  91 SE16      30.10F WCI  17
$$

NDZ018>021-031>035-040>046-250500-
SOUTHWEST NORTH DAKOTA

CITY           SKY/WX    TMP DP  RH WIND       PRES   REMARKS
BISMARCK       FAIR      31  29  92 E8        30.15S
DICKINSON      FAIR      37  31  78 SE15      30.00F
GARRISON         N/A     30  28  92 SE13      30.09F WCI  20
HETTINGER ARPT CLEAR     42  31  64 SE17      30.04F
$$

NDZ004>008-012>016-024-026-027-054-250500-
NORTHEAST NORTH DAKOTA

CITY           SKY/WX    TMP DP  RH WIND       PRES   REMARKS
GRAND FORKS    CLEAR     28  27  96 N6        30.23F
GRND FRKS AFB  CLEAR     26  26  99 NE6       30.23S WCI  19
DEVILS LAKE    CLOUDY    29  26  89 SE8       30.21S
$$

NDZ022-023-025-028>030-036>039-047>053-250500-
SOUTHEAST NORTH DAKOTA

CITY           SKY/WX    TMP DP  RH WIND       PRES   REMARKS
FARGO          CLEAR     31  29  92 N7        30.21R
JAMESTOWN      CLOUDY    30  27  88 E7        30.19S
$$





USA.gov is the U.S. government's official web portal to all federal, state and local government web resources and services.